CW7186 Weather Reports


time (UTC)temp
F
wind
direction
speed
knots
gust
knots
rain 1hr
in
rain 24hr
in
rain mn
in
humidity
%
barometer
mb
20260505093059 55 0 0.0 0.0 0.00 0.00 0.00 82 1010.1
20260505091553 56 0 0.0 0.0 0.00 0.00 0.00 80 1009.9
20260505090054 57 0 0.0 0.0 0.00 0.00 0.00 79 1009.9
20260505084554 57 0 0.0 0.9 0.00 0.00 0.00 78 1009.9
20260505083055 58 0 0.0 1.7 0.00 0.00 0.00 77 1010.0
20260505081554 58 0 0.0 2.6 0.00 0.00 0.00 76 1009.9
20260505080103 58 0 0.0 3.5 0.00 0.00 0.00 76 1009.9
20260505074555 58 0 0.0 3.5 0.00 0.00 0.00 77 1009.9
20260505073101 57 0 0.0 3.5 0.00 0.00 0.00 77 1009.8
20260505071555 57 193 0.0 3.5 0.00 0.00 0.00 76 1009.6
20260505070052 58 205 0.0 3.5 0.00 0.00 0.00 75 1009.6
20260505064600 58 0 0.9 3.5 0.00 0.00 0.00 75 1009.5
20260505063101 58 224 0.9 4.3 0.00 0.00 0.00 74 1009.7
20260505061559 59 207 0.9 7.0 0.00 0.00 0.00 73 1009.7
20260505060100 59 192 0.9 4.3 0.00 0.00 0.00 71 1009.8
20260505054559 59 216 1.7 6.1 0.00 0.00 0.00 70 1009.7
20260505053114 60 204 0.9 8.7 0.00 0.00 0.00 69 1009.7
20260505051553 60 216 2.6 8.7 0.00 0.00 0.00 68 1009.7
20260505041555 62 202 4.3 8.7 0.00 0.00 0.00 64 1010.0
20260505040057 62 190 2.6 7.8 0.00 0.00 0.00 63 1010.0
20260505034613 62 191 2.6 8.7 0.00 0.00 0.00 63 1010.0
20260505033057 62 182 3.5 10.4 0.00 0.00 0.00 63 1010.0
20260505031555 62 221 2.6 9.6 0.00 0.00 0.00 62 1010.1
20260505030059 62 208 1.7 8.7 0.00 0.00 0.00 62 1010.0
20260505024554 62 190 2.6 8.7 0.00 0.00 0.00 62 1010.1
20260505023052 62 203 1.7 6.1 0.00 0.00 0.00 61 1010.1
20260505021554 62 0 2.6 7.8 0.00 0.00 0.00 59 1010.2
20260505020058 62 194 0.9 6.1 0.00 0.00 0.00 58 1010.3
20260505014554 63 202 2.6 6.1 0.00 0.00 0.00 56 1010.3
20260505013052 63 207 0.9 6.1 0.00 0.00 0.00 53 1010.1
20260505011608 64 198 1.7 7.8 0.00 0.00 0.00 51 1010.0
20260505010058 64 210 1.7 4.3 0.00 0.00 0.00 47 1009.8
20260505004605 65 209 0.0 2.6 0.00 0.00 0.00 45 1009.7
20260505003057 66 0 0.0 1.7 0.00 0.00 0.00 43 1009.5
20260505001613 67 0 0.0 4.3 0.00 0.00 0.00 41 1009.4
20260505000106 69 0 0.9 5.2 0.00 0.00 0.00 39 1009.2
20260504234557 70 232 0.9 3.5 0.00 0.00 0.00 38 1009.2
20260504233110 70 236 1.7 8.7 0.00 0.00 0.00 36 1009.0
20260504231553 71 273 1.7 11.3 0.00 0.00 0.00 35 1009.0
20260504230052 72 0 2.6 12.2 0.00 0.00 0.00 34 1008.9
20260504224553 73 0 3.5 10.4 0.00 0.00 0.00 34 1008.9
20260504223054 73 265 0.9 12.2 0.00 0.00 0.00 34 1008.9
20260504221553 73 0 1.7 7.8 0.00 0.00 0.00 33 1008.9
20260504220052 73 242 4.3 12.2 0.00 0.00 0.00 33 1009.0
20260504214555 74 324 2.6 12.2 0.00 0.00 0.00 31 1009.0
20260504213054 74 257 2.6 11.3 0.00 0.00 0.00 31 1009.1
20260504211554 74 250 4.3 11.3 0.00 0.00 0.00 32 1009.1
20260504210059 74 233 2.6 10.4 0.00 0.00 0.00 31 1009.1
20260504204557 74 321 4.3 12.2 0.00 0.00 0.00 31 1009.1
20260504203057 75 340 2.6 9.6 0.00 0.00 0.00 31 1009.1
20260504201555 73 272 5.2 11.3 0.00 0.00 0.00 33 1009.0
20260504200100 74 196 4.3 13.9 0.00 0.00 0.00 30 1009.1
20260504194601 74 199 1.7 12.2 0.00 0.00 0.00 32 1009.2
20260504193056 73 260 5.2 10.4 0.00 0.00 0.00 31 1009.4
20260504191612 72 0 3.5 13.9 0.00 0.00 0.00 32 1009.6
20260504190051 73 294 4.3 13.0 0.00 0.00 0.00 32 1009.8
20260504184552 72 286 5.2 13.0 0.00 0.00 0.00 31 1010.1
20260504183053 72 243 7.0 16.5 0.00 0.00 0.00 31 1010.3
20260504181600 72 185 2.6 12.2 0.00 0.00 0.00 32 1010.6
20260504180052 72 245 3.5 10.4 0.00 0.00 0.00 33 1010.8
20260504174554 71 277 4.3 12.2 0.00 0.00 0.00 34 1011.1
20260504173053 70 296 5.2 13.0 0.00 0.00 0.00 34 1011.2
20260504171555 70 300 3.5 13.0 0.00 0.00 0.00 34 1011.4